Weather History for Florence, SC

Change the Weather History Date:

Friday, November 22, 2013

  Actual Average Record
Temperature  
Mean Temperature 65 °F 54 °F  
Max Temperature 73 °F 65 °F 80 °F (2011)
Min Temperature 56 °F 42 °F 20 °F (2000)
Degree Days  
Heating Degree Days 0 12  
Month to date heating degree days 221 200  
Since 1 July heating degree days 303 317  
Cooling Degree Days 0 0  
Month to date cooling degree days 16 16  
Year to date cooling degree days 2046 2058  
Growing Degree Days 14 (Base 50)    
Moisture  
Dew Point 58 °F    
Average Humidity 79    
Maximum Humidity 93    
Minimum Humidity 64    
Precipitation  
Precipitation T in 0.09 in 1.95 in (1948)
Month to date precipitation 0.78 1.94  
Year to date precipitation 48.96 39.17  
Sea Level Pressure  
Sea Level Pressure 30.26 in    
Wind  
Wind Speed 3 mph (South)    
Max Wind Speed 12 mph    
Max Gust Speed 15 mph    
Visibility 9 miles    
Events Rain    
T = Trace of Precipitation, MM = Missing Value Source: NWS Daily Summary

Daily Weather History Graph

Daily Weather History Graph

Search for Another Location

Airport:

Trip Planner

Search our weather history database for the weather conditions in past years. The results will help you decide how hot, cold, wet, or windy it might be!

Date:

Astronomy

Nov. 22, 2013 Rise Set
Actual Time 6:58 AM EST 5:11 PM EST
Civil Twilight 6:31 AM EST 5:38 PM EST
Nautical Twilight 6:00 AM EST 6:08 PM EST
Astronomical Twilight 5:30 AM EST 6:38 PM EST
Moon 9:38 PM EST (11/22) 10:43 AM EST (11/22)
Length of Visible Light 11h 06m
Length of Day
10h 12m
Waning Gibbous, 78% of the Moon is Illuminated
Nov 22
Waning Gibbous
Nov 25
Last Quarter
Dec 2
New
Dec 9
First Quarter
Dec 17
Full

Hourly Weather History & Observations

Time (EST) Temp. Dew Point Humidity Pressure Visibility Wind Dir Wind Speed Gust Speed Precip Events Conditions
12:53 AM 59.0 °F 53.1 °F 81% 30.35 in 10.0 mi NNE 3.5 mph - N/A   Overcast
1:53 AM 59.0 °F 52.0 °F 78% 30.34 in 10.0 mi NE 4.6 mph - N/A   Overcast
2:53 AM 55.9 °F 52.0 °F 87% 30.33 in 10.0 mi NNE 3.5 mph - N/A   Mostly Cloudy
3:53 AM 57.0 °F 52.0 °F 83% 30.32 in 10.0 mi NE 3.5 mph - N/A   Overcast
4:53 AM 57.0 °F 53.1 °F 87% 30.31 in 10.0 mi ESE 4.6 mph - N/A   Overcast
5:53 AM 57.9 °F 54.0 °F 87% 30.32 in 10.0 mi NNE 3.5 mph - N/A   Overcast
6:53 AM 57.0 °F 54.0 °F 89% 30.31 in 10.0 mi ESE 5.8 mph - N/A   Overcast
7:25 AM 55.4 °F 53.6 °F 94% 30.32 in 8.0 mi Calm Calm - N/A   Mostly Cloudy
7:42 AM 57.2 °F 53.6 °F 88% 30.32 in 7.0 mi Calm Calm - N/A   Overcast
7:53 AM 57.9 °F 54.0 °F 87% 30.32 in 8.0 mi Calm Calm - N/A   Overcast
8:53 AM 61.0 °F 55.0 °F 81% 30.32 in 8.0 mi Calm Calm - N/A   Overcast
9:10 AM 60.8 °F 55.4 °F 82% 30.32 in 8.0 mi Calm Calm - N/A   Mostly Cloudy
9:21 AM 60.8 °F 55.4 °F 82% 30.32 in 9.0 mi Calm Calm - N/A   Overcast
9:53 AM 62.1 °F 55.9 °F 80% 30.32 in 9.0 mi Calm Calm - N/A   Overcast
10:53 AM 68.0 °F 59.0 °F 73% 30.30 in 10.0 mi South 3.5 mph - N/A   Mostly Cloudy
11:53 AM 68.0 °F 62.1 °F 81% 30.27 in 9.0 mi South 3.5 mph - 0.00 in   Overcast
12:40 PM 73.4 °F 60.8 °F 65% 30.24 in 10.0 mi South 9.2 mph - N/A   Mostly Cloudy
12:53 PM 73.0 °F 60.1 °F 64% 30.24 in 10.0 mi SSW 9.2 mph - N/A   Overcast
1:53 PM 70.0 °F 62.1 °F 76% 30.22 in 5.0 mi SW 6.9 mph - 0.00 in Rain Light Rain
2:53 PM 70.0 °F 63.0 °F 78% 30.20 in 8.0 mi Calm Calm - 0.00 in   Mostly Cloudy
3:53 PM 72.0 °F 61.0 °F 68% 30.19 in 10.0 mi SSW 3.5 mph - N/A   Clear
4:53 PM 68.0 °F 62.1 °F 81% 30.17 in 9.0 mi Calm Calm - N/A   Partly Cloudy
5:53 PM 66.0 °F 63.0 °F 90% 30.18 in 10.0 mi Calm Calm - N/A   Clear
6:53 PM 64.0 °F 62.1 °F 93% 30.17 in 5.0 mi Calm Calm - N/A   Mostly Cloudy
7:53 PM 64.9 °F 62.1 °F 90% 30.16 in 10.0 mi SSW 3.5 mph - N/A   Overcast
8:53 PM 64.9 °F 63.0 °F 93% 30.15 in 10.0 mi SW 4.6 mph - N/A   Overcast
9:53 PM 66.0 °F 63.0 °F 90% 30.15 in 10.0 mi SW 5.8 mph - N/A   Scattered Clouds
10:53 PM 64.9 °F 62.1 °F 90% 30.13 in 9.0 mi SSW 5.8 mph - N/A   Clear
11:53 PM 64.9 °F 62.1 °F 90% 30.12 in 9.0 mi SW 4.6 mph - N/A   Partly Cloudy